Weather History for KCKP - November, 2011

Change the Weather History Date:

Friday, November 4, 2011

  Actual Average Record
Temperature  
Mean Temperature 36 °F -  
Max Temperature 53 °F 48 °F 79 °F (1978)
Min Temperature 19 °F 26 °F -11 °F (1991)
Degree Days  
Heating Degree Days 29    
Moisture  
Dew Point 25 °F    
Average Humidity 68    
Maximum Humidity 93    
Minimum Humidity 26    
Precipitation  
Precipitation 0.00 in - - ()
Sea Level Pressure  
Sea Level Pressure 30.16 in    
Wind  
Wind Speed 5 mph (South)    
Max Wind Speed 23 mph    
Max Gust Speed 26 mph    
Visibility 10 miles    
Events      
Averages and records for this station are not official NWS values.
T = Trace of Precipitation, MM = Missing Value Source: NWS Daily Summary

Daily Weather History Graph

Daily Weather History Graph

Search for Another Location

Airport or City:

Trip Planner

Search our weather history database for the weather conditions in past years. The results will help you decide how hot, cold, wet, or windy it might be!

Date:

Astronomy

Nov. 04, 2011 Rise Set
Actual Time 7:59 AM CDT 6:11 PM CDT
Civil Twilight 7:30 AM CDT 6:40 PM CDT
Nautical Twilight 6:56 AM CDT 7:14 PM CDT
Astronomical Twilight 6:23 AM CDT 7:47 PM CDT
Moon 3:10 PM CDT (11/4) 2:05 AM CDT (11/4)
Length of Visible Light 11h 10m
Length of Day
10h 11m
Waxing Gibbous, 69% of the Moon is Illuminated
Nov 4
Waxing Gibbous
Nov 10
Full
Nov 18
Last Quarter
Nov 25
New
Dec 2
First Quarter

Hourly Weather History & Observations

Time (CDT) Temp. Windchill Dew Point Humidity Pressure Visibility Wind Dir Wind Speed Gust Speed Precip Events Conditions
12:15 AM 26.6 °F - 21.2 °F 80% 30.26 in 10.0 mi Calm Calm - N/A   Clear
12:55 AM 26.6 °F - 23.0 °F 86% 30.24 in 10.0 mi Calm Calm - N/A   Clear
1:15 AM 26.6 °F - 23.0 °F 86% 30.24 in 10.0 mi Calm Calm - N/A   Clear
1:35 AM 23.0 °F - 19.4 °F 86% 30.24 in 10.0 mi Calm Calm - N/A   Clear
2:15 AM 24.8 °F - 21.2 °F 86% 30.24 in 10.0 mi Calm Calm - N/A   Clear
2:35 AM 24.8 °F - 21.2 °F 86% 30.24 in 10.0 mi Calm Calm - N/A   Clear
2:55 AM 23.0 °F - 21.2 °F 93% 30.23 in 10.0 mi Calm Calm - N/A   Clear
3:15 AM 23.0 °F - 19.4 °F 86% 30.23 in 10.0 mi Calm Calm - N/A   Clear
3:35 AM 23.0 °F - 21.2 °F 93% 30.23 in 10.0 mi Calm Calm - N/A   Clear
3:55 AM 24.8 °F - 23.0 °F 93% 30.23 in 10.0 mi Calm Calm - N/A   Clear
4:15 AM 23.0 °F - 21.2 °F 93% 30.23 in 10.0 mi Calm Calm - N/A   Clear
4:35 AM 21.2 °F - 17.6 °F 86% 30.24 in 10.0 mi Calm Calm - N/A   Clear
4:55 AM 19.4 °F - 17.6 °F 93% 30.24 in 10.0 mi Calm Calm - N/A   Clear
5:15 AM 21.2 °F - 19.4 °F 93% 30.24 in 10.0 mi Calm Calm - N/A   Clear
5:35 AM 23.0 °F - 21.2 °F 93% 30.24 in 10.0 mi Calm Calm - N/A   Clear
5:55 AM 21.2 °F - 19.4 °F 93% 30.24 in 10.0 mi Calm Calm - N/A   Clear
6:15 AM 21.2 °F - 19.4 °F 93% 30.24 in 10.0 mi Calm Calm - N/A   Clear
6:35 AM 21.2 °F - 19.4 °F 93% 30.24 in 10.0 mi Calm Calm - N/A   Clear
6:55 AM 21.2 °F 13.6 °F 19.4 °F 93% 30.23 in 10.0 mi SE 5.8 mph - N/A   Clear
7:15 AM 26.6 °F 19.1 °F 23.0 °F 86% 30.21 in 10.0 mi South 6.9 mph - N/A   Clear
7:35 AM 26.6 °F 21.2 °F 23.0 °F 86% 30.22 in 10.0 mi SSE 4.6 mph - N/A   Clear
7:55 AM 26.6 °F - 23.0 °F 86% 30.22 in 10.0 mi Calm Calm - N/A   Clear
8:15 AM 28.4 °F 23.3 °F 26.6 °F 93% 30.22 in 10.0 mi South 4.6 mph - N/A   Clear
8:35 AM 30.2 °F 26.7 °F 26.6 °F 86% 30.23 in 10.0 mi WSW 3.5 mph - N/A   Clear
8:55 AM 30.2 °F - 26.6 °F 86% 30.23 in 10.0 mi Calm Calm - N/A   Clear
9:15 AM 32.0 °F 26.4 °F 28.4 °F 87% 30.22 in 10.0 mi SSW 5.8 mph - N/A   Clear
9:35 AM 33.8 °F 27.0 °F 30.2 °F 87% 30.22 in 10.0 mi South 8.1 mph - N/A   Clear
9:55 AM 35.6 °F 30.7 °F 30.2 °F 81% 30.22 in 10.0 mi SSE 5.8 mph - N/A   Clear
10:15 AM 37.4 °F 30.8 °F 30.2 °F 75% 30.22 in 10.0 mi South 9.2 mph - N/A   Clear
10:35 AM 39.2 °F 33.0 °F 32.0 °F 75% 30.21 in 10.0 mi South 9.2 mph - N/A   Clear
10:55 AM 42.8 °F 35.4 °F 32.0 °F 66% 30.21 in 10.0 mi South 15.0 mph - N/A   Clear
11:15 AM 42.8 °F 35.1 °F 32.0 °F 66% 30.21 in 10.0 mi South 16.1 mph 20.7 mph N/A   Clear
11:35 AM 42.8 °F 35.4 °F 32.0 °F 66% 30.20 in 10.0 mi South 15.0 mph - N/A   Clear
11:55 AM 44.6 °F 37.4 °F 30.2 °F 57% 30.20 in 10.0 mi South 16.1 mph - N/A   Clear
12:15 PM 46.4 °F 39.8 °F 30.2 °F 53% 30.19 in 10.0 mi South 16.1 mph 19.6 mph N/A   Clear
12:55 PM 50.0 °F - 28.4 °F 43% 30.17 in 10.0 mi South 15.0 mph - N/A   Clear
1:15 PM 51.8 °F - 30.2 °F 44% 30.16 in 10.0 mi South 16.1 mph 20.7 mph N/A   Clear
1:35 PM 51.8 °F - 28.4 °F 41% 30.15 in 10.0 mi South 16.1 mph 23.0 mph N/A   Clear
1:55 PM 51.8 °F - 26.6 °F 38% 30.14 in 10.0 mi South 17.3 mph 24.2 mph N/A   Clear
2:35 PM 53.6 °F - 24.8 °F 33% 30.11 in 10.0 mi South 18.4 mph 23.0 mph N/A   Clear
2:55 PM 53.6 °F - 23.0 °F 30% 30.10 in 10.0 mi South 17.3 mph 23.0 mph N/A   Clear
3:15 PM 53.6 °F - 24.8 °F 33% 30.09 in 10.0 mi South 17.3 mph 23.0 mph N/A   Clear
3:35 PM 53.6 °F - 21.2 °F 28% 30.08 in 10.0 mi SSE 19.6 mph 26.5 mph N/A   Clear
3:55 PM 53.6 °F - 21.2 °F 28% 30.08 in 10.0 mi SSE 17.3 mph 24.2 mph N/A   Clear
4:35 PM 53.6 °F - 19.4 °F 26% 30.07 in 10.0 mi SSE 23.0 mph 26.5 mph N/A   Clear
4:55 PM 53.6 °F - 21.2 °F 28% 30.04 in 10.0 mi SSE 18.4 mph 24.2 mph N/A   Clear
5:15 PM 53.6 °F - 21.2 °F 28% 30.04 in 10.0 mi SSE 13.8 mph 23.0 mph N/A   Clear
5:55 PM 50.0 °F - 23.0 °F 35% 30.03 in 10.0 mi SSE 12.7 mph - N/A   Clear
6:15 PM 48.2 °F - 23.0 °F 37% 30.03 in 10.0 mi SSE 12.7 mph - N/A   Clear
6:35 PM 46.4 °F 41.1 °F 26.6 °F 46% 30.03 in 10.0 mi SSE 11.5 mph - N/A   Clear
6:55 PM 44.6 °F 39.7 °F 28.4 °F 53% 30.04 in 10.0 mi SSE 9.2 mph - N/A   Clear
7:15 PM 44.6 °F 38.8 °F 30.2 °F 57% 30.03 in 10.0 mi SSE 11.5 mph - N/A   Clear
7:35 PM 44.6 °F 39.2 °F 30.2 °F 57% 30.03 in 10.0 mi SSE 10.4 mph - N/A   Clear
7:55 PM 42.8 °F - 32.0 °F 66% 30.02 in 10.0 mi Calm Calm - N/A   Clear
8:15 PM 42.8 °F 36.6 °F 32.0 °F 66% 30.02 in 10.0 mi SSE 11.5 mph - N/A   Clear
8:35 PM 42.8 °F 37.0 °F 32.0 °F 66% 30.02 in 10.0 mi SSE 10.4 mph - N/A   Clear
8:55 PM 41.0 °F 35.8 °F 32.0 °F 70% 30.02 in 10.0 mi South 8.1 mph - N/A   Clear
9:15 PM 41.0 °F 34.3 °F 32.0 °F 70% 30.01 in 10.0 mi SSE 11.5 mph - N/A   Clear
9:35 PM 42.8 °F 37.0 °F 32.0 °F 66% 30.01 in 10.0 mi SSE 10.4 mph - N/A   Clear
9:55 PM 41.0 °F 34.3 °F 32.0 °F 70% 30.01 in 10.0 mi South 11.5 mph - N/A   Clear
10:15 PM 41.0 °F 35.2 °F 32.0 °F 70% 30.01 in 10.0 mi South 9.2 mph - N/A   Clear
10:35 PM 41.0 °F 35.2 °F 32.0 °F 70% 30.01 in 10.0 mi SSE 9.2 mph - N/A   Clear
10:55 PM 41.0 °F 34.7 °F 32.0 °F 70% 30.01 in 10.0 mi SSE 10.4 mph - N/A   Clear
11:15 PM 41.0 °F 35.2 °F 32.0 °F 70% 30.00 in 10.0 mi SSE 9.2 mph - N/A   Clear
11:55 PM 41.0 °F 34.3 °F 33.8 °F 76% 29.99 in 10.0 mi South 11.5 mph - N/A   Clear